User: anonymous   Login
Location: Stonelick Lake State Park
(39.2170°N, 84.0850°W)
Time: 06:51:27
(UTC-05:00)
Language:

Abrixas rocket - Orbit

View from above orbital plane
View from above orbital plane
View from above satellite
View from above satellite

Ground track
Ground track

The orbit data is extracted from the following two-line orbital elements,

1 25723U 99022C   16345.76201154  .00008809  00000-0  15313-3 0  9997
2 25723  48.4173  90.0644 0011261 214.5189 145.5025 15.51454819977213
Epoch (UTC): 10 December 2016 18:17:17
Eccentricity: 0.0011261
inclination: 48.4173°
perigee height: 405 km
apogee height: 420 km
right ascension of ascending node: 90.0644°
argument of perigee: 214.5189°
revolutions per day: 15.51454819
mean anomaly at epoch: 145.5025°
orbit number at epoch: 97721

The dashed part of the orbit path shows where the satellite is in the earth's shadow,  

DLR